Volver al catálogo

JINJUSat 1B

JINJUSAT-1B

ActivoRadioaficionadoSSO
NORAD 63210·PAYLOAD·🇰🇷 South Korea

Lanzado Mar 15, 2025 desde Vandenberg Space Force Base

Loading…

Próximos Pases (próximas 24 horas)

TLE

ActualizadoSource: Space-Track

Época: Sep 14, 2026, 15:51 UTC

1 63210U 25052A   26257.66102173  .00014576  00000-0  41676-3 0  9994
2 63210  97.3865 154.6417 0005059 109.5394 250.6397 15.36069214 83820

Sigue JINJUSat 1B en tiempo real con AllMySat

Download on the App Store